Time,TemperatureF,DewpointF,PressureIn,WindDirection,WindDirectionDegrees,WindSpeedMPH,WindSpeedGustMPH,Humidity,HourlyPrecipIn,Conditions,Clouds,dailyrainin,SoftwareType,DateUTC
2013-03-31 00:02:00,45.0,45.0,29.96,South,180,3.0,5.0,100,-99.99,,,-99.99,,2013-03-31 05:02:00,
2013-03-31 00:12:00,45.0,45.0,29.96,SSE,157,4.0,5.0,100,-99.99,,,-99.99,,2013-03-31 05:12:00,
2013-03-31 00:22:00,45.0,45.0,29.96,SSE,157,3.0,3.0,100,-99.99,,,-99.99,,2013-03-31 05:22:00,
2013-03-31 00:32:00,45.0,45.0,29.96,South,180,2.0,4.0,100,-99.99,,,-99.99,,2013-03-31 05:32:00,
2013-03-31 00:42:00,46.0,45.0,29.96,SSW,202,2.0,4.0,99,-99.99,,,-99.99,,2013-03-31 05:42:00,
2013-03-31 00:52:00,46.0,45.0,29.96,SSW,202,2.0,3.0,99,-99.99,,,-99.99,,2013-03-31 05:52:00,
2013-03-31 01:02:00,46.0,45.0,29.96,SW,225,0.0,-999.0,99,-99.99,,,-99.99,,2013-03-31 06:02:00,
2013-03-31 01:12:00,45.0,45.0,29.96,NW,315,2.0,3.0,99,-99.99,,,-99.99,,2013-03-31 06:12:00,
2013-03-31 01:22:00,45.0,45.0,29.96,NNW,337,1.0,3.0,99,-99.99,,,-99.99,,2013-03-31 06:22:00,
2013-03-31 01:32:00,45.0,45.0,29.96,West,270,0.0,-999.0,100,-99.99,,,-99.99,,2013-03-31 06:32:00,
2013-03-31 01:42:00,45.0,45.0,29.96,NNE,22,0.0,-999.0,99,-99.99,,,-99.99,,2013-03-31 06:42:00,
2013-03-31 01:52:00,45.0,44.0,29.96,NNE,22,0.0,-999.0,100,-99.99,,,-99.99,,2013-03-31 06:52:00,
2013-03-31 02:02:00,45.0,45.0,29.96,NNW,337,1.0,3.0,100,-99.99,,,-99.99,,2013-03-31 07:02:00,
2013-03-31 02:12:00,45.0,45.0,29.96,NW,315,0.0,-999.0,100,-99.99,,,-99.99,,2013-03-31 07:12:00,
2013-03-31 02:22:00,45.0,45.0,29.96,West,270,1.0,2.0,100,-99.99,,,-99.99,,2013-03-31 07:22:00,
2013-03-31 02:32:00,45.0,45.0,29.96,West,270,0.0,-999.0,100,-99.99,,,-99.99,,2013-03-31 07:32:00,
2013-03-31 02:42:00,45.0,45.0,29.95,SSW,202,0.0,-999.0,100,-99.99,,,-99.99,,2013-03-31 07:42:00,
2013-03-31 02:52:00,45.0,45.0,29.95,SW,225,0.0,-999.0,100,-99.99,,,-99.99,,2013-03-31 07:52:00,
2013-03-31 03:02:00,44.0,44.0,29.95,WNW,292,2.0,3.0,100,-99.99,,,-99.99,,2013-03-31 08:02:00,
2013-03-31 03:12:00,45.0,45.0,29.95,WNW,292,2.0,3.0,100,-99.99,,,-99.99,,2013-03-31 08:12:00,
2013-03-31 03:22:00,45.0,45.0,29.95,West,270,1.0,2.0,100,-99.99,,,-99.99,,2013-03-31 08:22:00,
2013-03-31 03:32:00,45.0,45.0,29.96,WNW,292,3.0,4.0,100,-99.99,,,-99.99,,2013-03-31 08:32:00,
2013-03-31 03:42:00,45.0,45.0,29.95,WNW,292,3.0,5.0,100,-99.99,,,-99.99,,2013-03-31 08:42:00,
2013-03-31 03:52:00,46.0,46.0,29.95,WNW,292,5.0,7.0,100,-99.99,,,-99.99,,2013-03-31 08:52:00,
2013-03-31 04:02:00,46.0,46.0,29.95,WNW,292,4.0,6.0,100,-99.99,,,-99.99,,2013-03-31 09:02:00,
2013-03-31 04:12:00,46.0,46.0,29.95,WNW,292,5.0,7.0,100,-99.99,,,-99.99,,2013-03-31 09:12:00,
2013-03-31 04:22:00,46.0,46.0,29.95,WNW,292,4.0,8.0,100,-99.99,,,-99.99,,2013-03-31 09:22:00,
2013-03-31 04:32:00,47.0,47.0,29.95,WNW,292,5.0,7.0,100,-99.99,,,-99.99,,2013-03-31 09:32:00,
2013-03-31 04:42:00,47.0,47.0,29.95,WNW,292,5.0,7.0,100,-99.99,,,-99.99,,2013-03-31 09:42:00,
2013-03-31 04:53:00,47.0,47.0,29.94,WNW,292,4.0,6.0,100,-99.99,,,-99.99,,2013-03-31 09:53:00,
2013-03-31 05:03:00,47.0,47.0,29.94,WNW,292,3.0,5.0,100,-99.99,,,-99.99,,2013-03-31 10:03:00,
2013-03-31 05:13:00,46.0,46.0,29.94,West,270,3.0,4.0,100,-99.99,,,-99.99,,2013-03-31 10:13:00,
2013-03-31 05:23:00,46.0,46.0,29.94,WNW,292,3.0,4.0,100,-99.99,,,-99.99,,2013-03-31 10:23:00,
2013-03-31 05:32:00,46.0,46.0,29.94,West,270,3.0,4.0,100,-99.99,,,-99.99,,2013-03-31 10:32:00,
2013-03-31 05:42:00,46.0,46.0,29.94,WNW,292,3.0,4.0,100,-99.99,,,-99.99,,2013-03-31 10:42:00,
2013-03-31 05:52:00,46.0,46.0,29.93,West,270,3.0,4.0,100,-99.99,,,-99.99,,2013-03-31 10:52:00,
2013-03-31 06:02:00,46.0,46.0,29.95,WNW,292,6.0,9.0,100,-99.99,,,-99.99,,2013-03-31 11:02:00,
2013-03-31 06:12:00,46.0,46.0,29.95,WNW,292,5.0,7.0,100,-99.99,,,-99.99,,2013-03-31 11:12:00,
2013-03-31 06:23:00,46.0,46.0,29.95,WNW,292,4.0,6.0,100,-99.99,,,-99.99,,2013-03-31 11:23:00,
2013-03-31 06:32:00,46.0,46.0,29.95,West,270,5.0,8.0,100,-99.99,,,-99.99,,2013-03-31 11:32:00,
2013-03-31 06:42:00,46.0,46.0,29.95,West,270,4.0,6.0,100,-99.99,,,-99.99,,2013-03-31 11:42:00,
2013-03-31 06:52:00,46.0,46.0,29.95,West,270,4.0,6.0,100,-99.99,,,-99.99,,2013-03-31 11:52:00,
2013-03-31 07:02:00,46.0,46.0,29.95,West,270,5.0,7.0,100,-99.99,,,-99.99,,2013-03-31 12:02:00,
2013-03-31 07:12:00,46.0,46.0,29.95,West,270,5.0,8.0,100,-99.99,,,-99.99,,2013-03-31 12:12:00,
2013-03-31 07:22:00,46.0,46.0,29.96,West,270,4.0,7.0,100,-99.99,,,-99.99,,2013-03-31 12:22:00,
2013-03-31 07:33:00,46.0,46.0,29.95,West,270,6.0,8.0,100,-99.99,,,-99.99,,2013-03-31 12:33:00,
2013-03-31 07:42:00,46.0,46.0,29.96,WNW,292,6.0,8.0,100,-99.99,,,-99.99,,2013-03-31 12:42:00,
2013-03-31 07:52:00,46.0,46.0,29.97,West,270,4.0,8.0,100,-99.99,,,-99.99,,2013-03-31 12:52:00,
2013-03-31 08:02:00,46.0,46.0,29.97,West,270,5.0,8.0,100,-99.99,,,-99.99,,2013-03-31 13:02:00,
2013-03-31 08:12:00,46.0,46.0,29.97,WNW,292,7.0,9.0,100,-99.99,,,-99.99,,2013-03-31 13:12:00,
2013-03-31 08:22:00,46.0,46.0,29.97,WNW,292,5.0,7.0,100,-99.99,,,-99.99,,2013-03-31 13:22:00,
2013-03-31 08:32:00,46.0,46.0,29.97,West,270,6.0,8.0,100,-99.99,,,-99.99,,2013-03-31 13:32:00,
2013-03-31 08:42:00,46.0,46.0,29.97,West,270,6.0,8.0,100,-99.99,,,-99.99,,2013-03-31 13:42:00,
2013-03-31 08:52:00,47.0,47.0,29.97,WNW,292,6.0,10.0,100,-99.99,,,-99.99,,2013-03-31 13:52:00,
2013-03-31 09:02:00,47.0,47.0,29.97,WNW,292,7.0,10.0,100,-99.99,,,-99.99,,2013-03-31 14:02:00,
2013-03-31 09:12:00,47.0,47.0,29.97,WNW,292,8.0,12.0,100,-99.99,,,-99.99,,2013-03-31 14:12:00,
2013-03-31 09:22:00,47.0,47.0,29.97,WNW,292,6.0,10.0,100,-99.99,,,-99.99,,2013-03-31 14:22:00,
2013-03-31 09:32:00,47.0,47.0,29.96,NW,315,8.0,10.0,100,-99.99,,,-99.99,,2013-03-31 14:32:00,
2013-03-31 09:42:00,48.0,48.0,29.97,WNW,292,7.0,12.0,100,-99.99,,,-99.99,,2013-03-31 14:42:00,
2013-03-31 09:52:00,48.0,48.0,29.97,WNW,292,7.0,11.0,100,-99.99,,,-99.99,,2013-03-31 14:52:00,
2013-03-31 10:02:00,49.0,48.0,29.97,WNW,292,7.0,11.0,98,-99.99,,,-99.99,,2013-03-31 15:02:00,
2013-03-31 10:12:00,49.0,48.0,29.96,WNW,292,6.0,7.0,96,-99.99,,,-99.99,,2013-03-31 15:12:00,
2013-03-31 10:22:00,50.0,48.0,29.96,WNW,292,6.0,8.0,95,-99.99,,,-99.99,,2013-03-31 15:22:00,
2013-03-31 10:33:00,51.0,49.0,29.95,NW,315,7.0,11.0,94,-99.99,,,-99.99,,2013-03-31 15:33:00,
2013-03-31 10:43:00,51.0,49.0,29.94,NW,315,6.0,9.0,91,-99.99,,,-99.99,,2013-03-31 15:43:00,
2013-03-31 10:53:00,52.0,49.0,29.94,WNW,292,6.0,10.0,91,-99.99,,,-99.99,,2013-03-31 15:53:00,
2013-03-31 11:03:00,53.0,49.0,29.94,WNW,292,8.0,12.0,88,-99.99,,,-99.99,,2013-03-31 16:03:00,
2013-03-31 11:13:00,53.0,49.0,29.94,WNW,292,6.0,11.0,87,-99.99,,,-99.99,,2013-03-31 16:13:00,
2013-03-31 11:22:00,54.0,50.0,29.94,WNW,292,7.0,11.0,85,-99.99,,,-99.99,,2013-03-31 16:22:00,
2013-03-31 11:33:00,55.0,50.0,29.94,NW,315,7.0,11.0,83,-99.99,,,-99.99,,2013-03-31 16:33:00,
2013-03-31 11:42:00,55.0,50.0,29.94,WNW,292,6.0,9.0,82,-99.99,,,-99.99,,2013-03-31 16:42:00,
2013-03-31 11:53:00,56.0,50.0,29.94,NW,315,5.0,9.0,80,-99.99,,,-99.99,,2013-03-31 16:53:00,
2013-03-31 12:02:00,57.0,50.0,29.94,WNW,292,6.0,10.0,77,-99.99,,,-99.99,,2013-03-31 17:02:00,
2013-03-31 12:12:00,58.0,49.0,29.94,WNW,292,6.0,11.0,74,-99.99,,,-99.99,,2013-03-31 17:12:00,
2013-03-31 12:22:00,58.0,49.0,29.93,WNW,292,6.0,10.0,71,-99.99,,,-99.99,,2013-03-31 17:22:00,
2013-03-31 12:32:00,58.0,49.0,29.94,WNW,292,6.0,11.0,71,-99.99,,,-99.99,,2013-03-31 17:32:00,
2013-03-31 12:42:00,59.0,48.0,29.94,WNW,292,8.0,13.0,67,-99.99,,,-99.99,,2013-03-31 17:42:00,
2013-03-31 12:52:00,59.0,48.0,29.94,WNW,292,7.0,12.0,66,-99.99,,,-99.99,,2013-03-31 17:52:00,
2013-03-31 13:02:00,60.0,47.0,29.94,WNW,292,7.0,11.0,63,-99.99,,,-99.99,,2013-03-31 18:02:00,
2013-03-31 13:12:00,60.0,46.0,29.94,WNW,292,8.0,12.0,60,-99.99,,,-99.99,,2013-03-31 18:12:00,
2013-03-31 13:22:00,61.0,46.0,29.94,NW,315,8.0,13.0,58,-99.99,,,-99.99,,2013-03-31 18:22:00,
2013-03-31 13:32:00,61.0,45.0,29.93,NW,315,8.0,13.0,55,-99.99,,,-99.99,,2013-03-31 18:32:00,
2013-03-31 13:42:00,61.0,44.0,29.93,WNW,292,10.0,13.0,53,-99.99,,,-99.99,,2013-03-31 18:42:00,
2013-03-31 13:52:00,62.0,42.0,29.93,WNW,292,10.0,15.0,48,-99.99,,,-99.99,,2013-03-31 18:52:00,
2013-03-31 14:03:00,62.0,44.0,29.93,NW,315,11.0,16.0,52,-99.99,,,-99.99,,2013-03-31 19:03:00,
2013-03-31 14:12:00,63.0,44.0,29.93,NW,315,11.0,18.0,51,-99.99,,,-99.99,,2013-03-31 19:12:00,
2013-03-31 14:22:00,62.0,41.0,29.93,WNW,292,11.0,18.0,47,-99.99,,,-99.99,,2013-03-31 19:22:00,
2013-03-31 14:32:00,62.0,43.0,29.93,West,270,10.0,16.0,49,-99.99,,,-99.99,,2013-03-31 19:32:00,
2013-03-31 14:42:00,61.0,43.0,29.93,WNW,292,8.0,12.0,53,-99.99,,,-99.99,,2013-03-31 19:42:00,
2013-03-31 14:53:00,61.0,44.0,29.92,WNW,292,8.0,13.0,54,-99.99,,,-99.99,,2013-03-31 19:53:00,
2013-03-31 15:02:00,61.0,45.0,29.92,NW,315,6.0,9.0,55,-99.99,,,-99.99,,2013-03-31 20:02:00,
2013-03-31 15:12:00,61.0,45.0,29.92,WNW,292,8.0,11.0,55,-99.99,,,-99.99,,2013-03-31 20:12:00,
2013-03-31 15:22:00,61.0,43.0,29.92,West,270,11.0,18.0,51,-99.99,,,-99.99,,2013-03-31 20:22:00,
2013-03-31 15:33:00,62.0,43.0,29.92,WNW,292,14.0,19.0,50,-99.99,,,-99.99,,2013-03-31 20:33:00,
2013-03-31 15:42:00,63.0,44.0,29.92,West,270,14.0,22.0,50,-99.99,,,-99.99,,2013-03-31 20:42:00,
2013-03-31 15:52:00,63.0,43.0,29.92,West,270,16.0,23.0,48,-99.99,,,-99.99,,2013-03-31 20:52:00,
2013-03-31 16:02:00,63.0,42.0,29.92,West,270,16.0,24.0,46,-99.99,,,-99.99,,2013-03-31 21:02:00,
2013-03-31 16:12:00,63.0,43.0,29.92,West,270,15.0,23.0,47,-99.99,,,-99.99,,2013-03-31 21:12:00,
2013-03-31 16:22:00,62.0,41.0,29.92,West,270,14.0,23.0,46,-99.99,,,-99.99,,2013-03-31 21:22:00,
2013-03-31 16:33:00,61.0,42.0,29.92,WNW,292,13.0,18.0,50,-99.99,,,-99.99,,2013-03-31 21:33:00,
2013-03-31 16:43:00,62.0,44.0,29.92,WNW,292,12.0,18.0,52,-99.99,,,-99.99,,2013-03-31 21:43:00,
2013-03-31 16:53:00,62.0,43.0,29.92,West,270,15.0,21.0,50,-99.99,,,-99.99,,2013-03-31 21:53:00,
2013-03-31 17:03:00,62.0,43.0,29.92,West,270,15.0,20.0,50,-99.99,,,-99.99,,2013-03-31 22:03:00,
2013-03-31 17:13:00,62.0,44.0,29.92,West,270,15.0,24.0,51,-99.99,,,-99.99,,2013-03-31 22:13:00,
2013-03-31 17:23:00,62.0,44.0,29.92,West,270,15.0,20.0,52,-99.99,,,-99.99,,2013-03-31 22:23:00,
2013-03-31 17:33:00,62.0,45.0,29.93,WNW,292,11.0,18.0,54,-99.99,,,-99.99,,2013-03-31 22:33:00,
2013-03-31 17:42:00,60.0,43.0,29.93,WNW,292,13.0,20.0,55,-99.99,,,-99.99,,2013-03-31 22:42:00,
2013-03-31 17:52:00,61.0,45.0,29.93,NW,315,13.0,20.0,56,-99.99,,,-99.99,,2013-03-31 22:52:00,
2013-03-31 18:02:00,60.0,44.0,29.93,NW,315,13.0,20.0,56,-99.99,,,-99.99,,2013-03-31 23:02:00,
2013-03-31 18:12:00,59.0,44.0,29.93,NW,315,13.0,20.0,56,-99.99,,,-99.99,,2013-03-31 23:12:00,
2013-03-31 18:22:00,59.0,43.0,29.94,NW,315,15.0,20.0,54,-99.99,,,-99.99,,2013-03-31 23:22:00,
2013-03-31 18:32:00,59.0,43.0,29.94,NW,315,13.0,18.0,56,-99.99,,,-99.99,,2013-03-31 23:32:00,
2013-03-31 18:42:00,59.0,43.0,29.94,NW,315,12.0,19.0,56,-99.99,,,-99.99,,2013-03-31 23:42:00,
2013-03-31 18:52:00,58.0,43.0,29.94,NW,315,11.0,17.0,57,-99.99,,,-99.99,,2013-03-31 23:52:00,
2013-03-31 19:02:00,57.0,41.0,29.94,NW,315,12.0,18.0,55,-99.99,,,-99.99,,2013-04-01 00:02:00,
2013-03-31 19:12:00,57.0,41.0,29.95,NW,315,11.0,17.0,55,-99.99,,,-99.99,,2013-04-01 00:12:00,
2013-03-31 19:22:00,56.0,40.0,29.95,NW,315,11.0,16.0,55,-99.99,,,-99.99,,2013-04-01 00:22:00,
2013-03-31 19:32:00,55.0,39.0,29.95,NW,315,11.0,17.0,54,-99.99,,,-99.99,,2013-04-01 00:32:00,
2013-03-31 19:42:00,54.0,38.0,29.96,NW,315,9.0,13.0,54,-99.99,,,-99.99,,2013-04-01 00:42:00,
2013-03-31 19:52:00,54.0,37.0,29.96,WNW,292,7.0,12.0,52,-99.99,,,-99.99,,2013-04-01 00:52:00,
2013-03-31 20:02:00,53.0,37.0,29.96,NW,315,8.0,12.0,55,-99.99,,,-99.99,,2013-04-01 01:02:00,
2013-03-31 20:12:00,53.0,37.0,29.96,WNW,292,7.0,10.0,54,-99.99,,,-99.99,,2013-04-01 01:12:00,
2013-03-31 20:22:00,52.0,37.0,29.96,WNW,292,5.0,8.0,57,-99.99,,,-99.99,,2013-04-01 01:22:00,
2013-03-31 20:32:00,51.0,37.0,29.97,WNW,292,5.0,7.0,59,-99.99,,,-99.99,,2013-04-01 01:32:00,
2013-03-31 20:42:00,51.0,37.0,29.97,WNW,292,5.0,7.0,59,-99.99,,,-99.99,,2013-04-01 01:42:00,
2013-03-31 20:52:00,50.0,38.0,29.98,WNW,292,4.0,6.0,62,-99.99,,,-99.99,,2013-04-01 01:52:00,
2013-03-31 21:02:00,49.0,38.0,29.98,WNW,292,3.0,5.0,63,-99.99,,,-99.99,,2013-04-01 02:02:00,
2013-03-31 21:12:00,49.0,37.0,29.98,WNW,292,4.0,6.0,63,-99.99,,,-99.99,,2013-04-01 02:12:00,
2013-03-31 21:22:00,49.0,38.0,29.99,NW,315,4.0,5.0,65,-99.99,,,-99.99,,2013-04-01 02:22:00,
2013-03-31 21:32:00,49.0,38.0,29.99,NW,315,4.0,7.0,66,-99.99,,,-99.99,,2013-04-01 02:32:00,
2013-03-31 21:42:00,48.0,38.0,30.00,NW,315,5.0,7.0,67,-99.99,,,-99.99,,2013-04-01 02:42:00,
2013-03-31 21:52:00,47.0,37.0,30.00,NW,315,5.0,7.0,68,-99.99,,,-99.99,,2013-04-01 02:52:00,
2013-03-31 22:02:00,46.0,37.0,30.00,NNW,337,5.0,6.0,72,-99.99,,,-99.99,,2013-04-01 03:02:00,
2013-03-31 22:12:00,47.0,34.0,30.01,NNW,337,7.0,12.0,60,-99.99,,,-99.99,,2013-04-01 03:12:00,
2013-03-31 22:22:00,47.0,34.0,30.01,NNW,337,7.0,9.0,59,-99.99,,,-99.99,,2013-04-01 03:22:00,
2013-03-31 22:33:00,46.0,34.0,30.01,NNW,337,6.0,10.0,62,-99.99,,,-99.99,,2013-04-01 03:33:00,
2013-03-31 22:43:00,46.0,33.0,30.02,NNW,337,8.0,11.0,59,-99.99,,,-99.99,,2013-04-01 03:43:00,
2013-03-31 22:53:00,46.0,33.0,30.02,NNW,337,6.0,8.0,61,-99.99,,,-99.99,,2013-04-01 03:53:00,
2013-03-31 23:02:00,45.0,33.0,30.01,NNW,337,6.0,8.0,62,-99.99,,,-99.99,,2013-04-01 04:02:00,
2013-03-31 23:13:00,45.0,33.0,30.01,East,90,5.0,7.0,63,-99.99,,,-99.99,,2013-04-01 04:13:00,
2013-03-31 23:23:00,45.0,33.0,30.02,NNW,337,6.0,8.0,63,-99.99,,,-99.99,,2013-04-01 04:23:00,
2013-03-31 23:32:00,44.0,33.0,30.02,NNW,337,6.0,9.0,67,-99.99,,,-99.99,,2013-04-01 04:32:00,
2013-03-31 23:43:00,43.0,33.0,30.03,NNW,337,7.0,11.0,67,-99.99,,,-99.99,,2013-04-01 04:43:00,
2013-03-31 23:52:00,43.0,33.0,30.03,East,90,7.0,9.0,68,-99.99,,,-99.99,,2013-04-01 04:52:00,